Hourly Weather Munster

Today, 17 September, Friday

Time Temperature Precipitation Wind Pressure Humidity
00:00 +14°C° 0 mm 2 mps 757 mmHg 94%
01:00 +14°C° 0 mm 2 mps 757 mmHg 95%
02:00 +14°C° 0 mm 2 mps 757 mmHg 95%
03:00 +13°C° 0 mm 2 mps 757 mmHg 96%
04:00 +13°C° 0 mm 2 mps 757 mmHg 96%
05:00 +13°C° 0 mm 2 mps 757 mmHg 96%
06:00 +13°C° 0 mm 1 mps 757 mmHg 96%
07:00 +14°C° 0 mm 1 mps 756 mmHg 97%
08:00 +15°C° 0.1 mm 1 mps 756 mmHg 91%
09:00 +16°C° 0.1 mm 2 mps 756 mmHg 86%
10:00 +18°C° 0.1 mm 2 mps 756 mmHg 81%
11:00 +18°C° 0.3 mm 2 mps 756 mmHg 77%
12:00 +19°C° 0.3 mm 3 mps 756 mmHg 73%
13:00 +20°C° 0.3 mm 3 mps 756 mmHg 70%
14:00 +20°C° 0.3 mm 3 mps 756 mmHg 70%
15:00 +20°C° 0.3 mm 3 mps 756 mmHg 71%
16:00 +20°C° 0.3 mm 3 mps 755 mmHg 71%
17:00 +19°C° 0.2 mm 2 mps 755 mmHg 75%
18:00 +18°C° 0.2 mm 2 mps 755 mmHg 80%
19:00 +18°C° 0.2 mm 1 mps 755 mmHg 84%
20:00 +16°C° 0 mm 1 mps 756 mmHg 85%
21:00 +15°C° 0 mm 1 mps 756 mmHg 86%
22:00 +15°C° 0 mm 2 mps 756 mmHg 87%
23:00 +14°C° 0 mm 1 mps 756 mmHg 88%

Tomorrow, 18 September, Saturday

Time Temperature Precipitation Wind Pressure Humidity
00:00 +14°C° 0 mm 1 mps 757 mmHg 88%
01:00 +13°C° 0 mm 1 mps 757 mmHg 88%
02:00 +13°C° 0 mm 1 mps 757 mmHg 89%
03:00 +13°C° 0 mm 1 mps 757 mmHg 89%
04:00 +12°C° 0 mm 1 mps 757 mmHg 89%
05:00 +12°C° 0 mm 1 mps 757 mmHg 88%
06:00 +12°C° 0 mm 1 mps 757 mmHg 87%
07:00 +12°C° 0 mm 1 mps 757 mmHg 87%
08:00 +14°C° 0 mm 1 mps 757 mmHg 80%
09:00 +15°C° 0 mm 1 mps 757 mmHg 72%
10:00 +17°C° 0 mm 2 mps 757 mmHg 65%
11:00 +18°C° 0 mm 2 mps 757 mmHg 61%
12:00 +19°C° 0 mm 2 mps 757 mmHg 58%
13:00 +20°C° 0 mm 2 mps 757 mmHg 54%
14:00 +20°C° 0 mm 2 mps 757 mmHg 54%
15:00 +20°C° 0 mm 3 mps 757 mmHg 54%
16:00 +21°C° 0 mm 3 mps 756 mmHg 55%
17:00 +20°C° 0 mm 3 mps 756 mmHg 60%
18:00 +18°C° 0 mm 3 mps 756 mmHg 66%
19:00 +17°C° 0 mm 3 mps 756 mmHg 71%
20:00 +17°C° 0 mm 3 mps 757 mmHg 74%
21:00 +16°C° 0 mm 3 mps 757 mmHg 77%
22:00 +16°C° 0 mm 3 mps 757 mmHg 80%
23:00 +14°C° 0 mm 4 mps 757 mmHg 81%

Day after tomorrow, 19 September, Sunday

Time Temperature Precipitation Wind Pressure Humidity
00:00 +14°C° 0 mm 4 mps 756 mmHg 83%
01:00 +14°C° 0 mm 4 mps 756 mmHg 84%
02:00 +14°C° 0 mm 4 mps 756 mmHg 83%
03:00 +13°C° 0 mm 4 mps 756 mmHg 82%
04:00 +13°C° 0 mm 5 mps 756 mmHg 81%
05:00 +13°C° 0 mm 5 mps 756 mmHg 82%
06:00 +12°C° 0 mm 4 mps 756 mmHg 82%
07:00 +12°C° 0 mm 4 mps 756 mmHg 82%
08:00 +13°C° 0 mm 5 mps 756 mmHg 76%
09:00 +14°C° 0 mm 5 mps 756 mmHg 70%
10:00 +16°C° 0 mm 5 mps 756 mmHg 64%
11:00 +17°C° 0 mm 5 mps 756 mmHg 60%
12:00 +19°C° 0 mm 5 mps 756 mmHg 56%
13:00 +20°C° 0 mm 5 mps 756 mmHg 53%
14:00 +20°C° 0 mm 5 mps 756 mmHg 52%
15:00 +20°C° 0 mm 5 mps 756 mmHg 52%
16:00 +20°C° 0 mm 5 mps 755 mmHg 52%
17:00 +17°C° 0 mm 5 mps 755 mmHg 57%
18:00 +17°C° 0 mm 4 mps 756 mmHg 61%
19:00 +14°C° 0 mm 4 mps 756 mmHg 66%
20:00 +14°C° 0 mm 4 mps 756 mmHg 66%
21:00 +13°C° 0 mm 4 mps 756 mmHg 66%
22:00 +13°C° 0 mm 4 mps 756 mmHg 66%
23:00 +13°C° 0 mm 4 mps 756 mmHg 65%

20 September, Monday

Time Temperature Precipitation Wind Pressure Humidity
00:00 +13°C° 0 mm 4 mps 756 mmHg 65%
01:00 +13°C° 0 mm 4 mps 756 mmHg 64%
02:00 +13°C° 0 mm 4 mps 756 mmHg 64%
03:00 +13°C° 0 mm 4 mps 756 mmHg 63%
04:00 +13°C° 0 mm 4 mps 756 mmHg 63%
05:00 +12°C° 0 mm 4 mps 756 mmHg 63%
06:00 +12°C° 0 mm 4 mps 757 mmHg 63%
07:00 +12°C° 0 mm 4 mps 757 mmHg 64%
08:00 +12°C° 0 mm 4 mps 757 mmHg 63%
09:00 +13°C° 0 mm 5 mps 757 mmHg 61%
10:00 +13°C° 0 mm 5 mps 758 mmHg 60%
11:00 +15°C° 0 mm 5 mps 758 mmHg 57%
12:00 +17°C° 0 mm 4 mps 758 mmHg 53%
13:00 +18°C° 0 mm 4 mps 758 mmHg 50%
14:00 +18°C° 0 mm 4 mps 758 mmHg 50%
15:00 +18°C° 0 mm 4 mps 758 mmHg 50%
16:00 +18°C° 0 mm 3 mps 758 mmHg 49%
17:00 +17°C° 0 mm 3 mps 759 mmHg 54%
18:00 +14°C° 0 mm 3 mps 759 mmHg 59%
19:00 +13°C° 0 mm 3 mps 759 mmHg 64%
20:00 +12°C° 0 mm 3 mps 760 mmHg 66%
21:00 +11°C° 0 mm 3 mps 760 mmHg 68%
22:00 +10°C° 0 mm 2 mps 761 mmHg 70%
23:00 +10°C° 0 mm 2 mps 761 mmHg 71%

21 September, Tuesday

Time Temperature Precipitation Wind Pressure Humidity
00:00 +10°C° 0 mm 2 mps 761 mmHg 72%
01:00 +9°C° 0 mm 2 mps 761 mmHg 73%
02:00 +9°C° 0 mm 2 mps 761 mmHg 74%
03:00 +9°C° 0 mm 2 mps 762 mmHg 75%
04:00 +8°C° 0 mm 2 mps 762 mmHg 76%
05:00 +8°C° 0 mm 2 mps 762 mmHg 77%
06:00 +8°C° 0 mm 2 mps 763 mmHg 77%
07:00 +9°C° 0 mm 1 mps 763 mmHg 78%
08:00 +10°C° 0 mm 2 mps 763 mmHg 71%
09:00 +13°C° 0 mm 2 mps 763 mmHg 64%
10:00 +15°C° 0 mm 2 mps 764 mmHg 58%
11:00 +16°C° 0 mm 2 mps 764 mmHg 54%
12:00 +17°C° 0 mm 2 mps 764 mmHg 51%
13:00 +17°C° 0 mm 3 mps 764 mmHg 47%
14:00 +17°C° 0 mm 3 mps 764 mmHg 48%
15:00 +17°C° 0 mm 3 mps 764 mmHg 48%
16:00 +17°C° 0 mm 3 mps 764 mmHg 49%
17:00 +16°C° 0 mm 3 mps 765 mmHg 54%
18:00 +13°C° 0 mm 3 mps 765 mmHg 60%
19:00 +13°C° 0 mm 2 mps 765 mmHg 66%
20:00 +12°C° 0 mm 2 mps 765 mmHg 70%
21:00 +12°C° 0 mm 2 mps 766 mmHg 73%
22:00 +10°C° 0 mm 2 mps 766 mmHg 77%
23:00 +10°C° 0 mm 2 mps 766 mmHg 78%

22 September, Wednesday

Time Temperature Precipitation Wind Pressure Humidity
00:00 +9°C° 0 mm 2 mps 766 mmHg 79%
01:00 +9°C° 0 mm 2 mps 766 mmHg 81%
02:00 +10°C° 0 mm 1 mps 766 mmHg 80%
03:00 +9°C° 0 mm 1 mps 766 mmHg 80%
04:00 +9°C° 0 mm 1 mps 766 mmHg 79%
05:00 +9°C° 0 mm 1 mps 766 mmHg 78%
06:00 +9°C° 0 mm 1 mps 766 mmHg 76%
07:00 +9°C° 0 mm 0 mps 766 mmHg 75%
08:00 +10°C° 0 mm 0 mps 767 mmHg 69%
09:00 +11°C° 0 mm 0 mps 767 mmHg 64%
10:00 +13°C° 0 mm 0 mps 767 mmHg 58%
11:00 +14°C° 0 mm 0 mps 767 mmHg 55%
12:00 +16°C° 0 mm 1 mps 767 mmHg 52%
13:00 +18°C° 0 mm 1 mps 766 mmHg 50%
14:00 +18°C° 0 mm 1 mps 766 mmHg 50%
15:00 +18°C° 0 mm 1 mps 766 mmHg 51%
16:00 +17°C° 0 mm 2 mps 766 mmHg 51%
17:00 +16°C° 0 mm 1 mps 766 mmHg 57%
18:00 +15°C° 0 mm 1 mps 766 mmHg 63%
19:00 +13°C° 0 mm 1 mps 766 mmHg 68%
20:00 +13°C° 0 mm 1 mps 766 mmHg 70%
21:00 +13°C° 0 mm 1 mps 766 mmHg 71%
22:00 +12°C° 0 mm 1 mps 766 mmHg 73%
23:00 +12°C° 0 mm 1 mps 765 mmHg 75%
Show more

We Need Your Consent

Meteoprog and our Service Providers may store and access personal data such as cookies, device identifiers or other similar technologies on your device and process such data to personalise content and ads, as well as provide social media features and to analyse the traffic.

  • Store and/or access information on your device

    Cookies, device identifiers or other information can be stored or accessed on your device for the purposes indicated above.

  • Personalised ads and content, ad and content measurement, audience insights, and products development

    Ads and content can be personalised based on a profile. More data can be added to better personalise ads and content. Ad and content performance can be measured. Insights about the audience who saw the ads and content can be derived. Such data can be used to develop or improve user’s experience, systems and software.

By clicking ‘I Agree’ you will allow the use of indicated cookies, device identifiers, web beacons or other similar technologies. Your settings can be changed in the browser on your device.

For certain purposes, legitimate interests may be relied on, rather than consent. You can read more about this in our Privacy and Cookie Policy.